Tracking 22873 objects as of 23-Apr-2021
HD Live streaming from Space Station
objects crossing your sky now

STARLINK-1856

Track STARLINK-1856 now!
10-day predictions
STARLINK-1856 is classified as:


NORAD ID: 47143
Int'l Code: 2020-088X
Perigee: 552.9 km
Apogee: 555.8 km
Inclination: 53.1 °
Period: 95.6 minutes
Semi major axis: 6925 km
RCS: Unknown
Launch date: November 25, 2020
Source: United States (US)
Launch site: AIR FORCE EASTERN TEST RANGE (AFETR)
aabbcc
Your satellite tracking list
Your tracking list is empty




NASA's NSSDC Master Catalog

Two Line Element Set (TLE):
1 47143U 20088X   21113.25001157 -.00000990  00000-0 -47545-4 0  9995
2 47143  53.0507   8.8396 0002075  72.2731 190.6992 15.06391450 23769
Source of the keplerian elements: AFSPC